Zurück zum Katalog

SL-8 R/B

AktivLEO
NORAD 23432·ROCKET BODY·🇷🇺 Russia

Gestartet Dec 20, 1994 von Plesetsk Cosmodrome

Loading…

Nächste Überflüge (nächste 24 Stunden)

TLE

AktuellSource: Space-Track

Epoche: Sep 14, 2026, 09:18 UTC

1 23432U 94083B   26257.38803488  .00000227  00000-0  89663-4 0  9999
2 23432  74.0295 241.1414 0005736 339.9852 169.7940 14.34499484659949

Verfolge SL-8 R/B in Echtzeit mit AllMySat

Download on the App Store